Overview Statistics Trail Chart Weather Telemetry Raw packets
 

This is the latest recevied weather packets stored in our database for station/object SA7AHC. If no packets are shown the sender has not sent any weather packets the latest 10 day(s).

<< 29 30 31 32 33 34 35 >>
Time Temp. Humidity Pressure Rain* Wind** Luminosity Snow
1788190485 17.22° C 89% 1009 hPa 0.25 mm - 104 W/m² -
1788189872 17.22° C 89% 1009.5 hPa 0.25 mm - 74 W/m² -
1788189270 17.22° C 90% 1009.4 hPa 0.25 mm - 137 W/m² -
1788188673 17.22° C 88% 1009.6 hPa 0 mm - 213 W/m² -
1788188070 16.67° C 86% 1009.7 hPa 0 mm - 69 W/m² -
1788187470 16.67° C 85% 1009.7 hPa 0 mm - 76 W/m² -
1788186870 17.22° C 85% 1010 hPa 0 mm - 67 W/m² -
1788186270 17.22° C 85% 1010 hPa 0 mm - 185 W/m² -
1788185669 17.22° C 83% 1010 hPa 0 mm - 88 W/m² -
1788185069 17.22° C 82% 1009.8 hPa 0 mm - 69 W/m² -
1788184469 17.22° C 82% 1009.7 hPa 0.25 mm - 195 W/m² -
1788183870 17.22° C 82% 1009.7 hPa 0.25 mm - 207 W/m² -
1788183270 16.67° C 83% 1009.7 hPa 0.25 mm - 269 W/m² -
1788182669 16.67° C 82% 1010.1 hPa 0.25 mm - 86 W/m² -
1788182069 16.67° C 82% 1010.1 hPa 0.25 mm - 151 W/m² -
1788181469 16.67° C 82% 1010.2 hPa 0.25 mm - 267 W/m² -
1788180872 16.67° C 83% 1010.2 hPa 0 mm - 169 W/m² -
1788180273 16.67° C 82% 1010.2 hPa 0 mm - 70 W/m² -
1788179673 16.67° C 81% 1010.2 hPa 0 mm - 91 W/m² -
1788179073 16.67° C 80% 1010.3 hPa 0 mm - 197 W/m² -
1788178470 16.67° C 80% 1010.2 hPa 0 mm - 135 W/m² -
1788177869 16.67° C 79% 1010.1 hPa 0 mm - 134 W/m² -
1788177268 17.22° C 80% 1010.1 hPa 0 mm - 197 W/m² -
1788176669 17.22° C 80% 1010.1 hPa 0 mm - 285 W/m² -
1788176070 17.22° C 78% 1010 hPa 0 mm - 274 W/m² -

* Rain latest hour (hover to see other rain measurements)
** Current wind speed in m/s (hover to see current wind gust speed)